Year,Month,Day,Hour,Minute,Value (Times are PST for temperature in C)
2017,10,23,00,00,5.40
2017,10,23,00,01,5.40
2017,10,23,00,02,5.40
2017,10,23,00,03,5.40
2017,10,23,00,04,5.40
2017,10,23,00,05,5.30
2017,10,23,00,06,5.30
2017,10,23,00,07,5.40
2017,10,23,00,08,5.30
2017,10,23,00,09,5.30
2017,10,23,00,10,5.30
2017,10,23,00,11,5.30
2017,10,23,00,12,5.30
2017,10,23,00,13,5.30
2017,10,23,00,14,5.30
2017,10,23,00,15,5.30
2017,10,23,00,16,5.30
2017,10,23,00,17,5.30
2017,10,23,00,18,5.30
2017,10,23,00,19,5.30
2017,10,23,00,20,5.30
2017,10,23,00,21,5.30
2017,10,23,00,22,5.30
2017,10,23,00,23,5.30
2017,10,23,00,24,5.30
2017,10,23,00,25,5.20
2017,10,23,00,26,5.20
2017,10,23,00,27,5.20
2017,10,23,00,28,5.20
2017,10,23,00,29,5.20
2017,10,23,00,30,5.20
2017,10,23,00,31,5.20
2017,10,23,00,32,5.20
2017,10,23,00,33,5.20
2017,10,23,00,34,5.10
2017,10,23,00,35,5.10
2017,10,23,00,36,5.10
2017,10,23,00,37,5.10
2017,10,23,00,38,5.10
2017,10,23,00,39,5.10
2017,10,23,00,40,5.10
2017,10,23,00,41,5.10
2017,10,23,00,42,5.00
2017,10,23,00,43,5.00
2017,10,23,00,44,5.00
2017,10,23,00,45,5.00
2017,10,23,00,46,5.00
2017,10,23,00,47,5.10
2017,10,23,00,48,5.10
2017,10,23,00,49,5.10
2017,10,23,00,50,5.10
2017,10,23,00,51,5.10
2017,10,23,00,52,5.10
2017,10,23,00,53,5.00
2017,10,23,00,54,5.00
2017,10,23,00,55,5.00
2017,10,23,00,56,5.00
2017,10,23,00,57,5.00
2017,10,23,00,58,5.00
2017,10,23,00,59,5.00
2017,10,23,01,00,5.00
2017,10,23,01,01,5.00
2017,10,23,01,02,5.00
2017,10,23,01,03,5.00
2017,10,23,01,04,5.00
2017,10,23,01,05,5.00
2017,10,23,01,06,5.00
2017,10,23,01,07,5.00
2017,10,23,01,08,5.00
2017,10,23,01,09,4.90
2017,10,23,01,10,4.90
2017,10,23,01,11,5.00
2017,10,23,01,12,5.00
2017,10,23,01,13,5.00
2017,10,23,01,14,5.00
2017,10,23,01,15,5.00
2017,10,23,01,16,5.00
2017,10,23,01,17,5.10
2017,10,23,01,18,5.10
2017,10,23,01,19,5.10
2017,10,23,01,20,5.10
2017,10,23,01,21,5.10
2017,10,23,01,22,5.10
2017,10,23,01,23,5.00
2017,10,23,01,24,5.00
2017,10,23,01,25,5.00
2017,10,23,01,26,5.00
2017,10,23,01,27,5.00
2017,10,23,01,28,5.00
2017,10,23,01,29,5.00
2017,10,23,01,30,5.00
2017,10,23,01,31,5.00
2017,10,23,01,32,5.00
2017,10,23,01,33,5.00
2017,10,23,01,34,4.90
2017,10,23,01,35,4.90
2017,10,23,01,36,4.90
2017,10,23,01,37,4.90
2017,10,23,01,38,4.90
2017,10,23,01,39,4.90
2017,10,23,01,40,4.90
2017,10,23,01,41,4.90
2017,10,23,01,42,4.80
2017,10,23,01,43,4.80
2017,10,23,01,44,4.80
2017,10,23,01,45,4.80
2017,10,23,01,46,4.80
2017,10,23,01,47,4.70
2017,10,23,01,48,4.70
2017,10,23,01,49,4.70
2017,10,23,01,50,4.70
2017,10,23,01,51,4.70
2017,10,23,01,52,4.70
2017,10,23,01,53,4.60
2017,10,23,01,54,4.60
2017,10,23,01,55,4.60
2017,10,23,01,56,4.60
2017,10,23,01,57,4.60
2017,10,23,01,58,4.60
2017,10,23,01,59,4.60
2017,10,23,02,00,4.60
2017,10,23,02,01,4.60
2017,10,23,02,02,4.60
2017,10,23,02,03,4.60
2017,10,23,02,04,4.60
2017,10,23,02,05,4.60
2017,10,23,02,06,4.60
2017,10,23,02,07,4.60
2017,10,23,02,08,4.60
2017,10,23,02,09,4.60
2017,10,23,02,10,4.60
2017,10,23,02,11,4.60
2017,10,23,02,12,4.50
2017,10,23,02,13,4.50
2017,10,23,02,14,4.50
2017,10,23,02,15,4.50
2017,10,23,02,16,4.40
2017,10,23,02,17,4.40
2017,10,23,02,18,4.40
2017,10,23,02,19,4.40
2017,10,23,02,20,4.40
2017,10,23,02,21,4.40
2017,10,23,02,22,4.40
2017,10,23,02,23,4.40
2017,10,23,02,24,4.40
2017,10,23,02,25,4.40
2017,10,23,02,26,4.40
2017,10,23,02,27,4.40
2017,10,23,02,28,4.40
2017,10,23,02,29,4.40
2017,10,23,02,30,4.50
2017,10,23,02,31,4.50
2017,10,23,02,32,4.60
2017,10,23,02,33,4.70
2017,10,23,02,34,4.80
2017,10,23,02,35,4.80
2017,10,23,02,36,4.90
2017,10,23,02,37,4.90
2017,10,23,02,38,4.90
2017,10,23,02,39,4.90
2017,10,23,02,40,4.90
2017,10,23,02,41,4.90
2017,10,23,02,42,4.80
2017,10,23,02,43,4.80
2017,10,23,02,44,4.90
2017,10,23,02,45,4.90
2017,10,23,02,46,4.90
2017,10,23,02,47,4.90
2017,10,23,02,48,4.90
2017,10,23,02,49,5.00
2017,10,23,02,50,5.00
2017,10,23,02,51,5.00
2017,10,23,02,52,5.00
2017,10,23,02,53,5.00
2017,10,23,02,54,5.00
2017,10,23,02,55,5.10
2017,10,23,02,56,5.10
2017,10,23,02,57,5.10
2017,10,23,02,58,5.10
2017,10,23,02,59,5.10
2017,10,23,03,00,5.10
2017,10,23,03,01,5.10
2017,10,23,03,02,5.10
2017,10,23,03,03,5.10
2017,10,23,03,04,5.10
2017,10,23,03,05,5.10
2017,10,23,03,06,5.10
2017,10,23,03,07,5.10
2017,10,23,03,08,5.10
2017,10,23,03,09,5.10
2017,10,23,03,10,5.10
2017,10,23,03,11,5.10
2017,10,23,03,12,5.10
2017,10,23,03,13,5.10
2017,10,23,03,14,5.10
2017,10,23,03,15,5.10
2017,10,23,03,16,5.10
2017,10,23,03,17,5.10
2017,10,23,03,18,5.10
2017,10,23,03,19,5.20
2017,10,23,03,20,5.20
2017,10,23,03,21,5.20
2017,10,23,03,22,5.20
2017,10,23,03,23,5.20
2017,10,23,03,24,5.20
2017,10,23,03,25,5.30
2017,10,23,03,26,5.30
2017,10,23,03,27,5.30
2017,10,23,03,28,5.30
2017,10,23,03,29,5.40
2017,10,23,03,30,5.40
2017,10,23,03,31,5.40
2017,10,23,03,32,5.40
2017,10,23,03,33,5.40
2017,10,23,03,34,5.50
2017,10,23,03,35,5.50
2017,10,23,03,36,5.50
2017,10,23,03,37,5.50
2017,10,23,03,38,5.50
2017,10,23,03,39,5.50
2017,10,23,03,40,5.50
2017,10,23,03,41,5.60
2017,10,23,03,42,5.60
2017,10,23,03,43,5.60
2017,10,23,03,44,5.60
2017,10,23,03,45,5.60
2017,10,23,03,46,5.60
2017,10,23,03,47,5.60
2017,10,23,03,48,5.60
2017,10,23,03,49,5.60
2017,10,23,03,50,5.60
2017,10,23,03,51,5.60
2017,10,23,03,52,5.60
2017,10,23,03,53,5.60
2017,10,23,03,54,5.60
2017,10,23,03,55,5.60
2017,10,23,03,56,5.60
2017,10,23,03,57,5.70
2017,10,23,03,58,5.70
2017,10,23,03,59,5.70
2017,10,23,04,00,5.70
2017,10,23,04,01,5.70
2017,10,23,04,02,5.70
2017,10,23,04,03,5.70
2017,10,23,04,04,5.70
2017,10,23,04,05,5.70
2017,10,23,04,06,5.70
2017,10,23,04,07,5.70
2017,10,23,04,08,5.70
2017,10,23,04,09,5.70
2017,10,23,04,10,5.70
2017,10,23,04,11,5.70
2017,10,23,04,12,5.70
2017,10,23,04,13,5.70
2017,10,23,04,14,5.70
2017,10,23,04,15,5.70
2017,10,23,04,16,5.70
2017,10,23,04,17,5.70
2017,10,23,04,18,5.70
2017,10,23,04,19,5.70
2017,10,23,04,20,5.70
2017,10,23,04,21,5.70
2017,10,23,04,22,5.70
2017,10,23,04,23,5.70
2017,10,23,04,24,5.70
2017,10,23,04,25,5.70
2017,10,23,04,26,5.80
2017,10,23,04,27,5.80
2017,10,23,04,28,5.80
2017,10,23,04,29,5.80
2017,10,23,04,30,5.90
2017,10,23,04,31,5.90
2017,10,23,04,32,5.90
2017,10,23,04,33,5.90
2017,10,23,04,34,5.90
2017,10,23,04,35,5.90
2017,10,23,04,36,5.90
2017,10,23,04,37,6.00
2017,10,23,04,38,6.00
2017,10,23,04,39,6.00
2017,10,23,04,40,6.00
2017,10,23,04,41,6.10
2017,10,23,04,42,6.10
2017,10,23,04,43,6.10
2017,10,23,04,44,6.10
2017,10,23,04,45,6.10
2017,10,23,04,46,6.10
2017,10,23,04,47,6.10
2017,10,23,04,48,6.10
2017,10,23,04,49,6.10
2017,10,23,04,50,6.10
2017,10,23,04,51,6.20
2017,10,23,04,52,6.20
2017,10,23,04,53,6.20
2017,10,23,04,54,6.20
2017,10,23,04,55,6.20
2017,10,23,04,56,6.20
2017,10,23,04,57,6.20
2017,10,23,04,58,6.20
2017,10,23,04,59,6.20
2017,10,23,05,00,6.20
2017,10,23,05,01,6.20
2017,10,23,05,02,6.20
2017,10,23,05,03,6.30
2017,10,23,05,04,6.30
2017,10,23,05,05,6.30
2017,10,23,05,06,6.30
2017,10,23,05,07,6.30
2017,10,23,05,08,6.30
2017,10,23,05,09,6.30
2017,10,23,05,10,6.30
2017,10,23,05,11,6.30
2017,10,23,05,12,6.30
2017,10,23,05,13,6.30
2017,10,23,05,14,6.30
2017,10,23,05,15,6.30
2017,10,23,05,16,6.30
2017,10,23,05,17,6.30
2017,10,23,05,18,6.40
2017,10,23,05,19,6.40
2017,10,23,05,20,6.40
2017,10,23,05,21,6.40
2017,10,23,05,22,6.40
2017,10,23,05,23,6.50
2017,10,23,05,24,6.50
2017,10,23,05,25,6.50
2017,10,23,05,26,6.50
2017,10,23,05,27,6.50
2017,10,23,05,28,6.50
2017,10,23,05,29,6.50
2017,10,23,05,30,6.50
2017,10,23,05,31,6.50
2017,10,23,05,32,6.60
2017,10,23,05,33,6.50
2017,10,23,05,34,6.50
2017,10,23,05,35,6.50
2017,10,23,05,36,6.50
2017,10,23,05,37,6.50
2017,10,23,05,38,6.50
2017,10,23,05,39,6.50
2017,10,23,05,40,6.50
2017,10,23,05,41,6.50
2017,10,23,05,42,6.50
2017,10,23,05,43,6.50
2017,10,23,05,44,6.40
2017,10,23,05,45,6.40
2017,10,23,05,46,6.40
2017,10,23,05,47,6.40
2017,10,23,05,48,6.40
2017,10,23,05,49,6.40
2017,10,23,05,50,6.50
2017,10,23,05,51,6.40
2017,10,23,05,52,6.50
2017,10,23,05,53,6.40
2017,10,23,05,54,6.40
2017,10,23,05,55,6.40
2017,10,23,05,56,6.40
2017,10,23,05,57,6.40
2017,10,23,05,58,6.40
2017,10,23,05,59,6.40
2017,10,23,06,00,6.50
2017,10,23,06,01,6.50
2017,10,23,06,02,6.50
2017,10,23,06,03,6.50
2017,10,23,06,04,6.60
2017,10,23,06,05,6.60
2017,10,23,06,06,6.60
2017,10,23,06,07,6.60
2017,10,23,06,08,6.50
2017,10,23,06,09,6.60
2017,10,23,06,10,6.60
2017,10,23,06,11,6.60
2017,10,23,06,12,6.60
2017,10,23,06,13,6.60
2017,10,23,06,14,6.60
2017,10,23,06,15,6.60
2017,10,23,06,16,6.60
2017,10,23,06,17,6.60
2017,10,23,06,18,6.60
2017,10,23,06,19,6.60
2017,10,23,06,20,6.60
2017,10,23,06,21,6.60
2017,10,23,06,22,6.60
2017,10,23,06,23,6.60
2017,10,23,06,24,6.60
2017,10,23,06,25,6.60
2017,10,23,06,26,6.60
2017,10,23,06,27,6.60
2017,10,23,06,28,6.60
2017,10,23,06,29,6.60
2017,10,23,06,30,6.60
2017,10,23,06,31,6.60
2017,10,23,06,32,6.60
2017,10,23,06,33,6.70
2017,10,23,06,34,6.70
2017,10,23,06,35,6.70
2017,10,23,06,36,6.70
2017,10,23,06,37,6.70
2017,10,23,06,38,6.70
2017,10,23,06,39,6.70
2017,10,23,06,40,6.60
2017,10,23,06,41,6.60
2017,10,23,06,42,6.60
2017,10,23,06,43,6.60
2017,10,23,06,44,6.60
2017,10,23,06,45,6.60
2017,10,23,06,46,6.70
2017,10,23,06,47,6.70
2017,10,23,06,48,6.70
2017,10,23,06,49,6.70
2017,10,23,06,50,6.70
2017,10,23,06,51,6.70
2017,10,23,06,52,6.70
2017,10,23,06,53,6.80
2017,10,23,06,54,6.80
2017,10,23,06,55,6.80
2017,10,23,06,56,6.80
2017,10,23,06,57,6.90
2017,10,23,06,58,6.90
2017,10,23,06,59,6.90
2017,10,23,07,00,6.90
2017,10,23,07,01,6.90
2017,10,23,07,02,6.90
2017,10,23,07,03,6.90
2017,10,23,07,04,7.00
2017,10,23,07,05,7.00
2017,10,23,07,06,7.10
2017,10,23,07,07,7.10
2017,10,23,07,08,7.10
2017,10,23,07,09,7.10
2017,10,23,07,10,7.10
2017,10,23,07,11,7.10
2017,10,23,07,12,7.10
2017,10,23,07,13,7.00
2017,10,23,07,14,7.00
2017,10,23,07,15,7.00
2017,10,23,07,16,7.00
2017,10,23,07,17,6.90
2017,10,23,07,18,6.90
2017,10,23,07,19,6.90
2017,10,23,07,20,6.80
2017,10,23,07,21,6.80
2017,10,23,07,22,6.80
2017,10,23,07,23,6.80
2017,10,23,07,24,6.80
2017,10,23,07,25,6.80
2017,10,23,07,26,6.80
2017,10,23,07,27,6.80
2017,10,23,07,28,6.80
2017,10,23,07,29,6.80
2017,10,23,07,30,6.80
2017,10,23,07,31,6.80
2017,10,23,07,32,6.80
2017,10,23,07,33,6.80
2017,10,23,07,34,6.80
2017,10,23,07,35,6.90
2017,10,23,07,36,6.80
2017,10,23,07,37,6.90
2017,10,23,07,38,6.90
2017,10,23,07,39,6.90
2017,10,23,07,40,7.00
2017,10,23,07,41,7.00
2017,10,23,07,42,7.10
2017,10,23,07,43,7.10
2017,10,23,07,44,7.10
2017,10,23,07,45,7.10
2017,10,23,07,46,7.10
2017,10,23,07,47,7.10
2017,10,23,07,48,7.10
2017,10,23,07,49,7.10
2017,10,23,07,50,7.10
2017,10,23,07,51,7.10
2017,10,23,07,52,7.10
2017,10,23,07,53,7.20
2017,10,23,07,54,7.20
2017,10,23,07,55,7.20
2017,10,23,07,56,7.10
2017,10,23,07,57,7.10
2017,10,23,07,58,7.10
2017,10,23,07,59,7.10
2017,10,23,08,00,7.10
2017,10,23,08,01,7.10
2017,10,23,08,02,7.10
2017,10,23,08,03,7.10
2017,10,23,08,04,7.10
2017,10,23,08,05,7.10
2017,10,23,08,06,7.10
2017,10,23,08,07,7.10
2017,10,23,08,08,7.10
2017,10,23,08,09,7.10
2017,10,23,08,10,7.10
2017,10,23,08,11,7.10
2017,10,23,08,12,7.10
2017,10,23,08,13,7.10
2017,10,23,08,14,7.10
2017,10,23,08,15,7.20
2017,10,23,08,16,7.20
2017,10,23,08,17,7.20
2017,10,23,08,18,7.20
2017,10,23,08,19,7.30
2017,10,23,08,20,7.30
2017,10,23,08,21,7.30
2017,10,23,08,22,7.40
2017,10,23,08,23,7.40
2017,10,23,08,24,7.40
2017,10,23,08,25,7.40
2017,10,23,08,26,7.50
2017,10,23,08,27,7.50
2017,10,23,08,28,7.50
2017,10,23,08,29,7.50
2017,10,23,08,30,7.50
2017,10,23,08,31,7.50
2017,10,23,08,32,7.50
2017,10,23,08,33,7.60
2017,10,23,08,34,7.60
2017,10,23,08,35,7.60
2017,10,23,08,36,7.60
2017,10,23,08,37,7.60
2017,10,23,08,38,7.60
2017,10,23,08,39,7.60
2017,10,23,08,40,7.60
2017,10,23,08,41,7.60
2017,10,23,08,42,7.60
2017,10,23,08,43,7.60
2017,10,23,08,44,7.70
2017,10,23,08,45,7.70
2017,10,23,08,46,7.70
2017,10,23,08,47,7.70
2017,10,23,08,48,7.80
2017,10,23,08,49,7.80
2017,10,23,08,50,7.90
2017,10,23,08,51,7.90
2017,10,23,08,52,7.90
2017,10,23,08,53,7.90
2017,10,23,08,54,8.00
2017,10,23,08,55,8.00
2017,10,23,08,56,8.00
2017,10,23,08,57,8.10
2017,10,23,08,58,8.10
2017,10,23,08,59,8.10
2017,10,23,09,00,8.10
2017,10,23,09,01,8.10
2017,10,23,09,02,8.10
2017,10,23,09,03,8.20
2017,10,23,09,04,8.20
2017,10,23,09,05,8.20
2017,10,23,09,06,8.20
2017,10,23,09,07,8.30
2017,10,23,09,08,8.30
2017,10,23,09,09,8.30
2017,10,23,09,10,8.30
2017,10,23,09,11,8.30
2017,10,23,09,12,8.40
2017,10,23,09,13,8.40
2017,10,23,09,14,8.50
2017,10,23,09,15,8.50
2017,10,23,09,16,8.60
2017,10,23,09,17,8.60
2017,10,23,09,18,8.60
2017,10,23,09,19,8.70
2017,10,23,09,20,8.70
2017,10,23,09,21,8.80
2017,10,23,09,22,8.80
2017,10,23,09,23,8.80
2017,10,23,09,24,8.90
2017,10,23,09,25,8.90
2017,10,23,09,26,9.00
2017,10,23,09,27,9.00
2017,10,23,09,28,9.10
2017,10,23,09,29,9.10
2017,10,23,09,30,9.10
2017,10,23,09,31,9.20
2017,10,23,09,32,9.20
2017,10,23,09,33,9.20
2017,10,23,09,34,9.20
2017,10,23,09,35,9.30
2017,10,23,09,36,9.30
2017,10,23,09,37,9.30
2017,10,23,09,38,9.40
2017,10,23,09,39,9.40
2017,10,23,09,40,9.40
2017,10,23,09,41,9.40
2017,10,23,09,42,9.50
2017,10,23,09,43,9.50
2017,10,23,09,44,9.50
2017,10,23,09,45,9.60
2017,10,23,09,46,9.60
2017,10,23,09,47,9.60
2017,10,23,09,48,9.60
2017,10,23,09,49,9.70
2017,10,23,09,50,9.70
2017,10,23,09,51,9.70
2017,10,23,09,52,9.70
2017,10,23,09,53,9.80
2017,10,23,09,54,9.80
2017,10,23,09,55,9.80
2017,10,23,09,56,9.80
2017,10,23,09,57,9.80
2017,10,23,09,58,9.80
2017,10,23,09,59,9.90
2017,10,23,10,00,9.90
2017,10,23,10,01,9.90
2017,10,23,10,02,9.90
2017,10,23,10,03,9.90
2017,10,23,10,04,9.90
2017,10,23,10,05,10.00
2017,10,23,10,06,10.00
2017,10,23,10,07,10.00
2017,10,23,10,08,10.00
2017,10,23,10,09,10.00
2017,10,23,10,10,10.00
2017,10,23,10,11,10.00
2017,10,23,10,12,10.00
2017,10,23,10,13,10.00
2017,10,23,10,14,10.10
2017,10,23,10,15,10.00
2017,10,23,10,16,10.10
2017,10,23,10,17,10.10
2017,10,23,10,18,10.10
2017,10,23,10,19,10.10
2017,10,23,10,20,10.10
2017,10,23,10,21,10.10
2017,10,23,10,22,10.10
2017,10,23,10,23,10.10
2017,10,23,10,24,10.10
2017,10,23,10,25,10.10
2017,10,23,10,26,10.10
2017,10,23,10,27,10.10
2017,10,23,10,28,10.10
2017,10,23,10,29,10.10
2017,10,23,10,30,10.10
2017,10,23,10,31,10.10
2017,10,23,10,32,10.10
2017,10,23,10,33,10.10
2017,10,23,10,34,10.10
2017,10,23,10,35,10.10
2017,10,23,10,36,10.10
2017,10,23,10,37,10.20
2017,10,23,10,38,10.20
2017,10,23,10,39,10.20
2017,10,23,10,40,10.20
2017,10,23,10,41,10.20
2017,10,23,10,42,10.20
2017,10,23,10,43,10.20
2017,10,23,10,44,10.20
2017,10,23,10,45,10.20
2017,10,23,10,46,10.20
2017,10,23,10,47,10.20
2017,10,23,10,48,10.20
2017,10,23,10,49,10.20
2017,10,23,10,50,10.20
2017,10,23,10,51,10.20
2017,10,23,10,52,10.20
2017,10,23,10,53,10.20
2017,10,23,10,54,10.20
2017,10,23,10,55,10.20
2017,10,23,10,56,10.30
2017,10,23,10,57,10.30
2017,10,23,10,58,10.30
2017,10,23,10,59,10.30
2017,10,23,11,00,10.30
2017,10,23,11,01,10.30
2017,10,23,11,02,10.30
2017,10,23,11,03,10.30
2017,10,23,11,04,10.30
2017,10,23,11,05,10.30
2017,10,23,11,06,10.30
2017,10,23,11,07,10.30
2017,10,23,11,08,10.30
2017,10,23,11,09,10.30
2017,10,23,11,10,10.30
2017,10,23,11,11,10.30
2017,10,23,11,12,10.30
2017,10,23,11,13,10.30
2017,10,23,11,14,10.30
2017,10,23,11,15,10.30
2017,10,23,11,16,10.30
2017,10,23,11,17,10.30
2017,10,23,11,18,10.30
2017,10,23,11,19,10.30
2017,10,23,11,20,10.30
2017,10,23,11,21,10.30
2017,10,23,11,22,10.40
2017,10,23,11,23,10.40
2017,10,23,11,24,10.40
2017,10,23,11,25,10.40
2017,10,23,11,26,10.50
2017,10,23,11,27,10.50
2017,10,23,11,28,10.50
2017,10,23,11,29,10.60
2017,10,23,11,30,10.60
2017,10,23,11,31,10.60
2017,10,23,11,32,10.60
2017,10,23,11,33,10.60
2017,10,23,11,34,10.60
2017,10,23,11,35,10.60
2017,10,23,11,36,10.60
2017,10,23,11,37,10.60
2017,10,23,11,38,10.60
2017,10,23,11,39,10.60
2017,10,23,11,40,10.60
2017,10,23,11,41,10.60
2017,10,23,11,42,10.70
2017,10,23,11,43,10.70
2017,10,23,11,44,10.70
2017,10,23,11,45,10.70
2017,10,23,11,46,10.70
2017,10,23,11,47,10.70
2017,10,23,11,48,10.70
2017,10,23,11,49,10.70
2017,10,23,11,50,10.70
2017,10,23,11,51,10.70
2017,10,23,11,52,10.70
2017,10,23,11,53,10.70
2017,10,23,11,54,10.70
2017,10,23,11,55,10.70
2017,10,23,11,56,10.70
2017,10,23,11,57,10.70
2017,10,23,11,58,10.70
2017,10,23,11,59,10.70
2017,10,23,12,00,10.70
2017,10,23,12,01,10.70
2017,10,23,12,02,10.70
2017,10,23,12,03,10.70
2017,10,23,12,04,10.70
2017,10,23,12,05,10.70
2017,10,23,12,06,10.70
2017,10,23,12,07,10.70
2017,10,23,12,08,10.70
2017,10,23,12,09,10.70
2017,10,23,12,10,10.70
2017,10,23,12,11,10.70
2017,10,23,12,12,10.70
2017,10,23,12,13,10.80
2017,10,23,12,14,10.80
2017,10,23,12,15,10.80
2017,10,23,12,16,10.80
2017,10,23,12,17,10.80
2017,10,23,12,18,10.80
2017,10,23,12,19,10.80
2017,10,23,12,20,10.80
2017,10,23,12,21,10.80
2017,10,23,12,22,10.80
2017,10,23,12,23,10.80
2017,10,23,12,24,10.80
2017,10,23,12,25,10.80
2017,10,23,12,26,10.80
2017,10,23,12,27,10.80
2017,10,23,12,28,10.80
2017,10,23,12,29,10.80
2017,10,23,12,30,10.80
2017,10,23,12,31,10.90
2017,10,23,12,32,10.90
2017,10,23,12,33,10.90
2017,10,23,12,34,10.90
2017,10,23,12,35,10.90
2017,10,23,12,36,10.90
2017,10,23,12,37,10.90
2017,10,23,12,38,10.90
2017,10,23,12,39,10.90
2017,10,23,12,40,10.90
2017,10,23,12,41,10.90
2017,10,23,12,42,10.90
2017,10,23,12,43,10.90
2017,10,23,12,44,10.90
2017,10,23,12,45,10.90
2017,10,23,12,46,10.90
2017,10,23,12,47,10.90
2017,10,23,12,48,10.90
2017,10,23,12,49,10.90
2017,10,23,12,50,10.90
2017,10,23,12,51,10.90
2017,10,23,12,52,10.90
2017,10,23,12,53,10.90
2017,10,23,12,54,10.90
2017,10,23,12,55,10.90
2017,10,23,12,56,11.00
2017,10,23,12,57,11.00
2017,10,23,12,58,11.00
2017,10,23,12,59,11.00
2017,10,23,13,00,11.00
2017,10,23,13,01,11.00
2017,10,23,13,02,11.00
2017,10,23,13,03,11.00
2017,10,23,13,04,11.00
2017,10,23,13,05,11.00
2017,10,23,13,06,11.00
2017,10,23,13,07,11.00
2017,10,23,13,08,11.00
2017,10,23,13,09,11.00
2017,10,23,13,10,11.10
2017,10,23,13,11,11.10
2017,10,23,13,12,11.10
2017,10,23,13,13,11.10
2017,10,23,13,14,11.10
2017,10,23,13,15,11.10
2017,10,23,13,16,11.10
2017,10,23,13,17,11.10
2017,10,23,13,18,11.10
2017,10,23,13,19,11.10
2017,10,23,13,20,11.10
2017,10,23,13,21,11.10
2017,10,23,13,22,11.10
2017,10,23,13,23,11.10
2017,10,23,13,24,11.10
2017,10,23,13,25,11.10
2017,10,23,13,26,11.10
2017,10,23,13,27,11.10
2017,10,23,13,28,11.10
2017,10,23,13,29,11.10
2017,10,23,13,30,11.10
2017,10,23,13,31,11.10
2017,10,23,13,32,11.10
2017,10,23,13,33,11.10
2017,10,23,13,34,11.10
2017,10,23,13,35,11.10
2017,10,23,13,36,11.10
2017,10,23,13,37,11.10
2017,10,23,13,38,11.10
2017,10,23,13,39,11.10
2017,10,23,13,40,11.10
2017,10,23,13,41,11.10
2017,10,23,13,42,11.10
2017,10,23,13,43,11.10
2017,10,23,13,44,11.10
2017,10,23,13,45,11.10
2017,10,23,13,46,11.10
2017,10,23,13,47,11.10
2017,10,23,13,48,11.10
2017,10,23,13,49,11.20
2017,10,23,13,50,11.20
2017,10,23,13,51,11.20
2017,10,23,13,52,11.20
2017,10,23,13,53,11.20
2017,10,23,13,54,11.20
2017,10,23,13,55,11.20
2017,10,23,13,56,11.20
2017,10,23,13,57,11.20
2017,10,23,13,58,11.20
2017,10,23,13,59,11.20
2017,10,23,14,00,11.20
2017,10,23,14,01,11.20
2017,10,23,14,02,11.20
2017,10,23,14,03,11.20
2017,10,23,14,04,11.30
2017,10,23,14,05,11.30
2017,10,23,14,06,11.30
2017,10,23,14,07,11.30
2017,10,23,14,08,11.30
2017,10,23,14,09,11.30
2017,10,23,14,10,11.30
2017,10,23,14,11,11.30
2017,10,23,14,12,11.30
2017,10,23,14,13,11.30
2017,10,23,14,14,11.30
2017,10,23,14,15,11.30
2017,10,23,14,16,11.30
2017,10,23,14,17,11.30
2017,10,23,14,18,11.30
2017,10,23,14,19,11.30
2017,10,23,14,20,11.30
2017,10,23,14,21,11.30
2017,10,23,14,22,11.30
2017,10,23,14,23,11.30
2017,10,23,14,24,11.30
2017,10,23,14,25,11.30
2017,10,23,14,26,11.30
2017,10,23,14,27,11.30
2017,10,23,14,28,11.30
2017,10,23,14,29,11.40
2017,10,23,14,30,11.40
2017,10,23,14,31,11.40
2017,10,23,14,32,11.40
2017,10,23,14,33,11.40
2017,10,23,14,34,11.40
2017,10,23,14,35,11.40
2017,10,23,14,36,11.40
2017,10,23,14,37,11.40
2017,10,23,14,38,11.40
2017,10,23,14,39,11.40
2017,10,23,14,40,11.40
2017,10,23,14,41,11.40
2017,10,23,14,42,11.40
2017,10,23,14,43,11.40
2017,10,23,14,44,11.40
2017,10,23,14,45,11.40
2017,10,23,14,46,11.40
2017,10,23,14,47,11.40
2017,10,23,14,48,11.40
2017,10,23,14,49,11.40
2017,10,23,14,50,11.40
2017,10,23,14,51,11.40
2017,10,23,14,52,11.40
2017,10,23,14,53,11.40
2017,10,23,14,54,11.40
2017,10,23,14,55,11.40
2017,10,23,14,56,11.50
2017,10,23,14,57,11.50
2017,10,23,14,58,11.50
2017,10,23,14,59,11.50
2017,10,23,15,00,11.50
2017,10,23,15,01,11.60
2017,10,23,15,02,11.60
2017,10,23,15,03,11.60
2017,10,23,15,04,11.60
2017,10,23,15,05,11.60
2017,10,23,15,06,11.60
2017,10,23,15,07,11.60
2017,10,23,15,08,11.60
2017,10,23,15,09,11.60
2017,10,23,15,10,11.60
2017,10,23,15,11,11.60
2017,10,23,15,12,11.60
2017,10,23,15,13,11.60
2017,10,23,15,14,11.60
2017,10,23,15,15,11.60
2017,10,23,15,16,11.60
2017,10,23,15,17,11.60
2017,10,23,15,18,11.60
2017,10,23,15,19,11.60
2017,10,23,15,20,11.60
2017,10,23,15,21,11.60
2017,10,23,15,22,11.60
2017,10,23,15,23,11.60
2017,10,23,15,24,11.60
2017,10,23,15,25,11.60
2017,10,23,15,26,11.60
2017,10,23,15,27,11.60
2017,10,23,15,28,11.60
2017,10,23,15,29,11.60
2017,10,23,15,30,11.60
2017,10,23,15,31,11.60
2017,10,23,15,32,11.60
2017,10,23,15,33,11.60
2017,10,23,15,34,11.60
2017,10,23,15,35,11.60
2017,10,23,15,36,11.60
2017,10,23,15,37,11.60
2017,10,23,15,38,11.60
2017,10,23,15,39,11.60
2017,10,23,15,40,11.60
2017,10,23,15,41,11.70
2017,10,23,15,42,11.70
2017,10,23,15,43,11.70
2017,10,23,15,44,11.70
2017,10,23,15,45,11.70
2017,10,23,15,46,11.70
2017,10,23,15,47,11.70
2017,10,23,15,48,11.70
2017,10,23,15,49,11.70
2017,10,23,15,50,11.70
2017,10,23,15,51,11.70
2017,10,23,15,52,11.80
2017,10,23,15,53,11.80
2017,10,23,15,54,11.80
2017,10,23,15,55,11.80
2017,10,23,15,56,11.80
2017,10,23,15,57,11.80
2017,10,23,15,58,11.80
2017,10,23,15,59,11.80
2017,10,23,16,00,11.90
2017,10,23,16,01,11.90
2017,10,23,16,02,11.90
2017,10,23,16,03,11.90
2017,10,23,16,04,11.80
2017,10,23,16,05,11.80
2017,10,23,16,06,11.80
2017,10,23,16,07,11.80
2017,10,23,16,08,11.80
2017,10,23,16,09,11.80
2017,10,23,16,10,11.80
2017,10,23,16,11,11.80
2017,10,23,16,12,11.80
2017,10,23,16,13,11.80
2017,10,23,16,14,11.80
2017,10,23,16,15,11.80
2017,10,23,16,16,11.80
2017,10,23,16,17,11.80
2017,10,23,16,18,11.80
2017,10,23,16,19,11.80
2017,10,23,16,20,11.80
2017,10,23,16,21,11.80
2017,10,23,16,22,11.70
2017,10,23,16,23,11.70
2017,10,23,16,24,11.70
2017,10,23,16,25,11.70
2017,10,23,16,26,11.70
2017,10,23,16,27,11.70
2017,10,23,16,28,11.70
2017,10,23,16,29,11.60
2017,10,23,16,30,11.60
2017,10,23,16,31,11.60
2017,10,23,16,32,11.60
2017,10,23,16,33,11.60
2017,10,23,16,34,11.60
2017,10,23,16,35,11.60
2017,10,23,16,36,11.50
2017,10,23,16,37,11.50
2017,10,23,16,38,11.50
2017,10,23,16,39,11.50
2017,10,23,16,40,11.50
2017,10,23,16,41,11.60
2017,10,23,16,42,11.60
2017,10,23,16,43,11.60
2017,10,23,16,44,11.60
2017,10,23,16,45,11.60
2017,10,23,16,46,11.60
2017,10,23,16,47,11.60
2017,10,23,16,48,11.60
2017,10,23,16,49,11.60
2017,10,23,16,50,11.60
2017,10,23,16,51,11.60
2017,10,23,16,52,11.60
2017,10,23,16,53,11.60
2017,10,23,16,54,11.60
2017,10,23,16,55,11.60
2017,10,23,16,56,11.60
2017,10,23,16,57,11.60
2017,10,23,16,58,11.50
2017,10,23,16,59,11.50
2017,10,23,17,00,11.50
2017,10,23,17,01,11.50
2017,10,23,17,02,11.50
2017,10,23,17,03,11.40
2017,10,23,17,04,11.40
2017,10,23,17,05,11.40
2017,10,23,17,06,11.40
2017,10,23,17,07,11.40
2017,10,23,17,08,11.40
2017,10,23,17,09,11.40
2017,10,23,17,10,11.40
2017,10,23,17,11,11.40
2017,10,23,17,12,11.40
2017,10,23,17,13,11.40
2017,10,23,17,14,11.40
2017,10,23,17,15,11.40
2017,10,23,17,16,11.30
2017,10,23,17,17,11.30
2017,10,23,17,18,11.30
2017,10,23,17,19,11.30
2017,10,23,17,20,11.30
2017,10,23,17,21,11.30
2017,10,23,17,22,11.30
2017,10,23,17,23,11.30
2017,10,23,17,24,11.30
2017,10,23,17,25,11.30
2017,10,23,17,26,11.30
2017,10,23,17,27,11.30
2017,10,23,17,28,11.30
2017,10,23,17,29,11.30
2017,10,23,17,30,11.30
2017,10,23,17,31,11.30
2017,10,23,17,32,11.30
2017,10,23,17,33,11.30
2017,10,23,17,34,11.30
2017,10,23,17,35,11.30
2017,10,23,17,36,11.30
2017,10,23,17,37,11.30
2017,10,23,17,38,11.30
2017,10,23,17,39,11.30
2017,10,23,17,40,11.30
2017,10,23,17,41,11.30
2017,10,23,17,42,11.30
2017,10,23,17,43,11.30
2017,10,23,17,44,11.30
2017,10,23,17,45,11.30